FDX12 KMEM-KATL

Flight info

Callsign FDX12
Flight time N/A
Altitude 33000
Route BBKNG7 KERMI HUTCC KNSAW RUSSA GLAVN2
Aircraft B763/H-SDE3FGHIM3RWXY/LB1

Departure

Time 2026-05-08 01:14
Airport Memphis International Airport (KMEM)

Arrival

Time N/A
Airport Hartsfield Jackson Atlanta International Airport (KATL)
Time Latitude Longitude Altitude Speed Heading
2026-05-08 00:34 35.06288 -89.98090 347 ft 0 kts 182°
2026-05-08 00:58 35.06300 -89.98089 347 ft 2 kts 181°
2026-05-08 00:59 35.06316 -89.98087 347 ft 2 kts 198°
2026-05-08 00:59 35.06329 -89.98080 347 ft 2 kts 215°
2026-05-08 00:59 35.06341 -89.98068 347 ft 2 kts 232°
2026-05-08 00:59 35.06349 -89.98052 347 ft 2 kts 249°
2026-05-08 01:00 35.06353 -89.98035 347 ft 1 kts 265°
2026-05-08 01:00 35.06353 -89.98026 347 ft 1 kts 272°
2026-05-08 01:00 35.06352 -89.98024 347 ft 0 kts 271°
2026-05-08 01:03 35.06353 -89.98045 347 ft 5 kts 271°
2026-05-08 01:04 35.06354 -89.98106 347 ft 8 kts 271°
2026-05-08 01:04 35.06356 -89.98193 347 ft 11 kts 271°
2026-05-08 01:04 35.06360 -89.98307 347 ft 14 kts 271°
2026-05-08 01:04 35.06363 -89.98436 347 ft 14 kts 271°
2026-05-08 01:05 35.06319 -89.98519 347 ft 12 kts 191°
2026-05-08 01:05 35.06208 -89.98526 347 ft 19 kts 179°
2026-05-08 01:05 35.06072 -89.98527 347 ft 19 kts 172°
2026-05-08 01:05 35.05932 -89.98510 347 ft 21 kts 173°
2026-05-08 01:06 35.05786 -89.98505 347 ft 20 kts 179°
2026-05-08 01:06 35.05645 -89.98506 347 ft 19 kts 178°
2026-05-08 01:06 35.05508 -89.98508 347 ft 19 kts 179°
2026-05-08 01:06 35.05359 -89.98509 347 ft 22 kts 179°
2026-05-08 01:07 35.05201 -89.98511 347 ft 23 kts 179°
2026-05-08 01:07 35.05047 -89.98561 347 ft 22 kts 206°
2026-05-08 01:07 35.04924 -89.98605 347 ft 15 kts 183°
2026-05-08 01:07 35.04812 -89.98606 347 ft 17 kts 177°
2026-05-08 01:08 35.04673 -89.98604 347 ft 21 kts 178°
2026-05-08 01:08 35.04523 -89.98601 347 ft 20 kts 176°
2026-05-08 01:08 35.04381 -89.98597 347 ft 20 kts 176°
2026-05-08 01:08 35.04216 -89.98593 347 ft 28 kts 177°
2026-05-08 01:09 35.04007 -89.98589 347 ft 29 kts 176°
2026-05-08 01:09 35.03804 -89.98585 347 ft 28 kts 178°
2026-05-08 01:09 35.03608 -89.98581 347 ft 27 kts 177°
2026-05-08 01:09 35.03419 -89.98577 347 ft 26 kts 177°
2026-05-08 01:10 35.03233 -89.98573 347 ft 26 kts 177°
2026-05-08 01:10 35.03053 -89.98568 347 ft 25 kts 177°
2026-05-08 01:10 35.02879 -89.98565 347 ft 24 kts 178°
2026-05-08 01:10 35.02710 -89.98561 347 ft 23 kts 176°
2026-05-08 01:11 35.02562 -89.98558 347 ft 19 kts 178°
2026-05-08 01:11 35.02466 -89.98556 347 ft 6 kts 175°
2026-05-08 01:11 35.02460 -89.98555 347 ft 0 kts 176°
2026-05-08 01:12 35.02429 -89.98564 347 ft 9 kts 209°
2026-05-08 01:12 35.02412 -89.98663 347 ft 10 kts 281°
2026-05-08 01:12 35.02461 -89.98691 347 ft 12 kts
2026-05-08 01:12 35.02481 -89.98691 347 ft 0 kts
2026-05-08 01:13 35.02482 -89.98691 347 ft 1 kts
2026-05-08 01:13 35.02617 -89.98694 347 ft 55 kts 359°
2026-05-08 01:13 35.03340 -89.98708 349 ft 146 kts
2026-05-08 01:14 35.04538 -89.98702 774 ft 189 kts
2026-05-08 01:14 35.05789 -89.98613 2040 ft 180 kts
2026-05-08 01:14 35.07085 -89.98299 2667 ft 198 kts 25°
2026-05-08 01:14 35.08335 -89.97417 3039 ft 218 kts 31°
2026-05-08 01:15 35.09685 -89.96368 3409 ft 241 kts 32°
2026-05-08 01:15 35.11144 -89.95208 3943 ft 257 kts 32°
2026-05-08 01:15 35.12655 -89.93964 4653 ft 268 kts 40°
2026-05-08 01:15 35.13748 -89.92073 5504 ft 277 kts 68°
2026-05-08 01:16 35.14087 -89.89737 6271 ft 289 kts 86°
2026-05-08 01:16 35.14079 -89.87307 7098 ft 295 kts 89°
2026-05-08 01:16 35.14029 -89.84723 7935 ft 301 kts 91°
2026-05-08 01:16 35.13644 -89.82179 8529 ft 316 kts 104°
2026-05-08 01:17 35.13041 -89.79597 9433 ft 318 kts 105°
2026-05-08 01:17 35.12423 -89.77003 10257 ft 324 kts 105°
2026-05-08 01:17 35.11713 -89.74320 10768 ft 341 kts 113°
2026-05-08 01:17 35.10704 -89.71631 11194 ft 360 kts 115°
2026-05-08 01:18 35.09629 -89.68774 11637 ft 380 kts 115°
2026-05-08 01:18 35.08516 -89.65842 12432 ft 386 kts 115°
2026-05-08 01:18 35.07375 -89.62837 13139 ft 395 kts 116°
2026-05-08 01:18 35.06197 -89.59742 13922 ft 401 kts 116°
2026-05-08 01:19 35.04997 -89.56599 14706 ft 407 kts 116°
2026-05-08 01:19 35.03810 -89.53488 15467 ft 411 kts 116°
2026-05-08 01:19 35.02587 -89.50290 16171 ft 418 kts 116°
2026-05-08 01:19 35.01350 -89.47054 16910 ft 423 kts 117°
2026-05-08 01:20 35.00109 -89.43816 17573 ft 430 kts 117°
2026-05-08 01:20 34.98835 -89.40490 18281 ft 435 kts 117°
2026-05-08 01:20 34.97549 -89.37144 18861 ft 443 kts 117°
2026-05-08 01:20 34.96241 -89.33735 19560 ft 447 kts 118°
2026-05-08 01:21 34.94895 -89.30235 20169 ft 453 kts 118°
2026-05-08 01:21 34.93534 -89.26697 20805 ft 457 kts 118°
2026-05-08 01:21 34.92185 -89.23177 21384 ft 463 kts 117°
2026-05-08 01:21 34.91089 -89.19398 21914 ft 472 kts 105°
2026-05-08 01:22 34.90418 -89.15495 22373 ft 479 kts 103°
2026-05-08 01:22 34.89751 -89.11500 22966 ft 481 kts 102°
2026-05-08 01:22 34.89084 -89.07454 23353 ft 489 kts 103°
2026-05-08 01:22 34.88405 -89.03426 23819 ft 494 kts 103°
2026-05-08 01:23 34.87708 -88.99294 24337 ft 499 kts 103°
2026-05-08 01:23 34.87011 -88.95187 24807 ft 504 kts 103°
2026-05-08 01:23 34.86293 -88.90990 25170 ft 512 kts 103°
2026-05-08 01:23 34.85574 -88.86769 25672 ft 516 kts 104°
2026-05-08 01:24 34.84826 -88.82397 26095 ft 522 kts 104°
2026-05-08 01:24 34.84071 -88.78003 26540 ft 527 kts 104°
2026-05-08 01:24 34.83284 -88.73447 26867 ft 535 kts 104°
2026-05-08 01:24 34.82521 -88.69019 27370 ft 537 kts 104°
2026-05-08 01:25 34.81748 -88.64545 27748 ft 542 kts 105°
2026-05-08 01:25 34.80971 -88.60057 28152 ft 546 kts 104°
2026-05-08 01:25 34.80184 -88.55528 28441 ft 553 kts 105°
2026-05-08 01:25 34.79393 -88.50971 28915 ft 554 kts 105°
2026-05-08 01:26 34.78592 -88.46390 29209 ft 560 kts 105°
2026-05-08 01:26 34.77770 -88.41708 29498 ft 566 kts 105°
2026-05-08 01:26 34.76951 -88.37021 29956 ft 568 kts 105°
2026-05-08 01:26 34.76122 -88.32311 30268 ft 572 kts 107°
2026-05-08 01:27 34.75291 -88.27593 30709 ft 573 kts 106°
2026-05-08 01:27 34.74467 -88.22918 31286 ft 570 kts 107°
2026-05-08 01:27 34.73644 -88.18263 31828 ft 567 kts 107°
2026-05-08 01:27 34.72644 -88.13634 32357 ft 559 kts 115°
2026-05-08 01:28 34.71405 -88.09163 32802 ft 557 kts 115°
2026-05-08 01:28 34.70190 -88.04742 33068 ft 555 kts 115°
2026-05-08 01:28 34.68955 -88.00282 33057 ft 557 kts 115°
2026-05-08 01:29 34.66499 -87.91405 33065 ft 554 kts 115°
2026-05-08 01:29 34.64050 -87.82603 33048 ft 553 kts 115°
2026-05-08 01:30 34.61592 -87.73775 33045 ft 554 kts 115°
2026-05-08 01:30 34.59123 -87.64940 33048 ft 550 kts 115°
2026-05-08 01:31 34.56653 -87.56140 33049 ft 553 kts 114°
2026-05-08 01:31 34.54183 -87.47354 33049 ft 551 kts 115°
2026-05-08 01:32 34.51706 -87.38587 33060 ft 553 kts 115°
2026-05-08 01:32 34.49155 -87.29565 33042 ft 552 kts 116°
2026-05-08 01:33 34.46653 -87.20759 33044 ft 546 kts 115°
2026-05-08 01:33 34.44175 -87.12071 33049 ft 553 kts 115°
2026-05-08 01:34 34.41660 -87.03262 33043 ft 550 kts 115°
2026-05-08 01:34 34.39166 -86.94555 33058 ft 550 kts 116°
2026-05-08 01:35 34.36665 -86.85864 33062 ft 549 kts 115°
2026-05-08 01:35 34.34156 -86.77160 33059 ft 551 kts 115°